Flag for Canada Weather past 2 weeks in Hamilton, Ontario, Canada

Now
72 °F

Partly sunny.


Feels Like: 71 °F
Forecast: 63 / 77 °F
Wind: 9 mph from South

Location: Hamilton Airport

Current Time: Jul 6, 2015 at 10:39:01 PM

Latest Report: Jul 6, 2015 at 10:00 PM


Visibility: 15 mi

Pressure: 29.96 "Hg

Humidity: 83%

Dew point: 66 °F

Location of HamiltonLocation

Historic Weather in Hamilton — Graph

°F

Hamilton temperature yesterday

Maximum temperature yesterday: 81 °F (at 3:00 PM)
Minimum temperature yesterday: 55 °F (at 5:00 AM)
Average temperature yesterday: 69 °F

Past Weeks' High & Low Weather Summary

 TemperatureHumidityPressure
High81 °F (Jul 5, 3:00 PM)100% (Jun 23, 4:00 AM)30.14 "Hg (Jun 23, 4:00 AM)
Low50 °F (Jun 28, 7:00 AM)34% (Jun 25, 4:00 PM)29.67 "Hg (Jun 23, 5:00 AM)
Average64 °F77%29.94 "Hg
* Reported Jun 21 9:00 PM — Jul 6 9:00 PM, Hamilton, Weather by CustomWeather, © 2015

Note: Actual official high and low records may vary slightly from our data, if they occured in-between our weather recording intervals... More about our weather records

Advertising

Hamilton weather history for previous 24 hours

 ConditionsComfort  
Time TempWeatherWind HumidityBarometerVisibility
9:00 PM
Mon, Jul 6
73 °FPartly sunny.8 mph74%29.97 "Hg15 mi
8:00 PM73 °FPartly sunny.6 mph78%29.97 "Hg15 mi
7:00 PM77 °FBroken clouds.8 mph74%29.98 "Hg15 mi
6:00 PM79 °FBroken clouds.6 mph70%29.99 "Hg15 mi
5:00 PM79 °FBroken clouds.10 mph70%30.01 "Hg12 mi
4:00 PM79 °FPartly sunny.8 mph70%30.02 "Hg12 mi
3:00 PM75 °FBroken clouds.10 mph74%30.02 "Hg12 mi
2:00 PM79 °FBroken clouds.10 mph70%30.03 "Hg10 mi
1:00 PM79 °FPassing clouds.7 mph74%30.05 "Hg15 mi
12:00 PM79 °FPassing clouds.7 mph70%30.08 "Hg15 mi
11:00 AM77 °FSunny.5 mph74%30.09 "Hg15 mi
10:00 AM73 °FScattered clouds.2 mph74%30.10 "Hg12 mi
9:00 AM70 °FPassing clouds.3 mph78%30.09 "Hg12 mi
8:00 AM66 °FPassing clouds.5 mph88%30.09 "Hg12 mi
7:00 AM61 °FPassing clouds.5 mph94%30.09 "Hg15 mi
6:00 AM61 °FPassing clouds.3 mph88%30.09 "Hg10 mi
5:00 AM63 °FPassing clouds.3 mph83%30.09 "Hg12 mi
4:00 AM63 °FPassing clouds.3 mph88%30.08 "Hg12 mi
3:00 AM63 °FPassing clouds.5 mph88%30.09 "Hg12 mi
2:00 AM64 °FPassing clouds.3 mph78%30.09 "Hg10 mi
1:00 AM64 °FPassing clouds.2 mph73%30.10 "Hg10 mi
12:00 AM66 °FPassing clouds.2 mph73%30.10 "Hg10 mi
11:00 PM
Sun, Jul 5
68 °FPassing clouds.2 mph69%30.11 "Hg10 mi
10:00 PM70 °FScattered clouds.3 mph64%30.11 "Hg10 mi
Weather by CustomWeather, © 2015

See weather overviewHow to use our weather pages